Simultaneous Nadir Overpasses (SNOs) Predictions

Prediction of SNOs between NOAA-20 and METOP-C Satellite Orbit:

Table of predicted SNOs for the next 14.0 days since TLE Epoch: 3/20/2019
Index Date (NOAA-20) Time (NOAA-20) Lat,Lon (NOAA-20) SZA (NOAA-20 ) Date (METOP-C) Time (METOP-C) Lat,Lon (METOP-C) SZA (METOP-C ) Distance(km) Time Diff (sec)
1 04/03/2019 01:35:42 73.39, 146.64 68.44 04/03/2019 01:36:50 73.33, 149.02 68.25 75.83 68
2 04/03/2019 02:26:24 -73.29, -45.81 111.69 04/03/2019 02:27:33 -73.24, -43.85 111.85 62.98 69
3 04/03/2019 03:17:06 73.09, 121.92 68.09 04/03/2019 03:18:17 73.06, 123.08 67.98 37.71 71
4 04/03/2019 04:07:48 -72.99, -70.54 112.04 04/03/2019 04:09:01 -72.92, -69.89 112.16 22.97 73
5 04/03/2019 04:58:30 72.80, 97.18 67.73 04/03/2019 04:59:44 72.79, 97.17 67.71 1.16 74
6 04/03/2019 05:49:14 -72.80, -95.50 112.28 04/03/2019 05:50:25 -72.80, -95.48 112.30 0.90 71
7 04/03/2019 06:40:00 72.80, 71.80 67.71 04/03/2019 06:41:05 72.82, 71.89 67.71 3.73 65
8 04/03/2019 07:30:44 -72.80,-120.89 112.30 04/03/2019 07:31:47 -72.78,-120.86 112.34 2.69 63
9 04/03/2019 08:21:30 72.81, 46.41 67.69 04/03/2019 08:22:27 72.80, 46.51 67.67 3.52 57
10 04/03/2019 09:12:13 -72.76,-146.17 112.38 04/03/2019 09:13:09 -72.76,-146.24 112.38 2.17 56
11 04/03/2019 10:02:59 72.76, 21.13 67.61 04/03/2019 10:03:49 72.78, 21.14 67.62 2.17 50
12 04/03/2019 10:53:43 -72.76,-171.56 112.40 04/03/2019 10:54:31 -72.74,-171.61 112.43 2.86 48
13 04/03/2019 11:44:29 72.77, -4.26 67.59 04/03/2019 11:45:11 72.76, -4.24 67.58 0.69 42
14 04/03/2019 12:35:13 -72.77, 163.06 112.42 04/03/2019 12:35:52 -72.78, 163.11 112.43 2.00 39
15 04/03/2019 13:25:59 72.77, -29.64 67.57 04/03/2019 13:26:33 72.74, -29.62 67.54 3.30 34
16 04/03/2019 14:16:43 -72.77, 137.67 112.44 04/03/2019 14:17:14 -72.76, 137.73 112.47 2.81 31
17 04/03/2019 15:07:28 72.73, -54.92 67.50 04/03/2019 15:07:55 72.72, -55.00 67.49 2.56 27
18 04/03/2019 15:58:12 -72.73, 112.39 112.52 04/03/2019 15:58:36 -72.74, 112.36 112.51 1.55 24
19 04/03/2019 16:48:58 72.73, -80.31 67.47 04/03/2019 16:49:16 72.76, -80.27 67.49 2.92 18
20 04/03/2019 17:39:42 -72.73, 87.00 112.54 04/03/2019 17:39:58 -72.72, 86.98 112.56 1.83 16
21 04/03/2019 18:30:28 72.74,-105.70 67.45 04/03/2019 18:30:38 72.74,-105.65 67.45 1.42 10
22 04/03/2019 19:21:12 -72.74, 61.62 112.56 04/03/2019 19:21:19 -72.75, 61.70 112.56 3.13 7
23 04/03/2019 20:11:58 72.74,-131.08 67.43 04/03/2019 20:12:00 72.72,-131.03 67.41 3.19 2
24 04/03/2019 21:02:42 -72.74, 36.23 112.58 04/03/2019 21:02:41 -72.73, 36.33 112.60 3.34 1




NCC Satellite Simultaneous Nadir Overpasses (SNOs) Prediction Service
